sat.trackr.live / text

‹ back to catalog

STARLINK-31282

NORAD 59307 · 2024-056M

PAYLOAD ACTIVE UNKNOWN

§ Identity

Operator
Country
US
Launch date
2024-03-24
Launch site
AFETR
Launch vehicle
Mass (kg)
RCS (m²)

Purposes: comms

External: N2YO · Heavens-Above · Gunter

§ Orbital elements

Epoch: 2026-09-20T05:19:57.704160Z

Period
94.27 min
Inclination
43.0021°
Eccentricity
0.0000926
Mean motion
15.27574763 rev/d
Perigee alt
482.4 km
Apogee alt
483.7 km
Semi-major
6,861.2 km
B*
6.8830e-6
RAAN
212.2523°
Arg perigee
277.1786°
Mean anomaly
82.8960°
Rev number
14,090

§ Raw data

STARLINK-312821 59307U 24056M   26263.22219565 -.00000073  00000+0  68830-5 0  99922 59307  43.0021 212.2523 0000926 277.1786  82.8960 15.27574763140902

JSON: /api/v1/satellites/59307 · /tle

For live sub-satellite position, see the globe view (requires WebGL).

§ Visibility from observer

Set your observer location to see the next 7 days of passes ≥ 10°. The values pass through the URL so the page stays shareable.

No JS? Fill the form by hand. The geolocation button needs JavaScript.